Regional Weather Roundup
Issued by NWS Northern Indiana

Home | Current Version | Previous Version | Text Only | Print | Product List | Glossary Off
Versions: 1 2 3 4 5 6 7 8 9 10 11 12 13 14 15 16 17 18 19 20 21 22 23 24 25 26 27 28 29 30 31 32 33 34 35 36 37 38 39 40 41 42 43 44 45 46 47 48 49 50

000
ASUS43 KIWX 282200
RWRIWX

KIWX WEATHER ROUNDUP
NATIONAL WEATHER SERVICE NORTHERN INDIANA
600 PM EDT SUN AUG 28 2016

NOTE: "FAIR" INDICATES FEW OR NO CLOUDS BELOW 12,000 FEET WITH NO
SIGNIFICANT WEATHER AND/OR OBSTRUCTIONS TO VISIBILITY.

* THESE STATIONS ARE NOT UNDER NWS QUALITY CONTROL. THEY ALSO MAY NOT
  REPORT WEATHER SUCH AS PRECIPITATION OR FOG.

INZ001>027-282300-
NORTHERN INDIANA

CITY           SKY/WX    TMP DP  RH WIND       PRES   REMARKS
GARY*          PTSUNNY   77  73  88 NE14      30.16F
KNOX*          CLOUDY    75  50  41 CALM      30.17F
SOUTH BEND     PTSUNNY   77  73  87 W6        30.18F
GOSHEN         CLOUDY    74  69  85 NE3       30.18S
MONTICELLO*    PTSUNNY   77  65  65 E6        30.16S
ANGOLA*        CLOUDY    70  63  78 E9        30.19F
FORT WAYNE     PTSUNNY   77  66  68 N9        30.17F
PERU/GRISSOM   TSTM      79  70  73 N16G33    30.15R

$$
INZ028>050-282300-
CENTRAL INDIANA

CITY           SKY/WX    TMP DP  RH WIND       PRES   REMARKS
LAFAYETTE      TSTM      77  74  90 S8        30.15R FOG
KOKOMO*        MOSUNNY   88  73  62 CALM      30.16R HX  96
MUNCIE*        CLOUDY    89  73  59 NE6       30.16S HX  97
INDIANAPOLIS   CLOUDY    84  71  65 NE13G26   30.14S

$$
MIZ043>046-050>051-056>058-064>065-071>073-077>080-282300-
SOUTHWEST LOWER MICHIGAN

CITY           SKY/WX    TMP DP  RH WIND       PRES   REMARKS
BATTLE CREEK   MOSUNNY   81  70  69 N6        30.19F
BENTON HARBOR  PTSUNNY   80  68  66 N7        30.17F
COLDWATER*     PTSUNNY   79  74  86 CALM      30.19F
HILLSDALE*     CLOUDY    79  73  83 SW3       30.21S
HOLLAND        SUNNY     79  66  64 W6        30.20F
GRAND RAPIDS   MOSUNNY   84  64  50 NW5       30.19F
KALAMAZOO      MOSUNNY   84  68  58 NW6       30.18F
STURGIS*       CLOUDY    77  72  84 CALM      30.17F
THREE RIVERS*  FAIR      79  72  78 SE3       30.18F

$$
OHZ001>008-015>018-024>025-282300-
NORTHWEST OHIO

CITY           SKY/WX    TMP DP  RH WIND       PRES   REMARKS
DEFIANCE       CLOUDY    79  69  71 NW10      30.19R
FINDLAY        SUNNY     87  65  47 N12       30.16S
TOLEDO EXPRESS MOSUNNY   78  73  84 NW6       30.17S
TOLEDO METCALF SUNNY     83  71  67 N5        30.17F
LIMA           MOSUNNY   86  75  69 E3        30.17S HX  95

$$
AND FOR LAKE MICHIGAN COASTAL AND OPEN LAKE BUOY OBSERVATIONS

STATION/POSITION TEMP    WIND        PRES    VSBY  WAVE
                 AIR SEA DIR/SP/G                  HT/PER
                 (F)     (DEG/KT/KT) (MB)    (MI)  (FT/S)
CALUMET HARBOR    74      20/  6/  8 1021.4F
MICHIGAN CITY     74      20/  9/ 10   N/A
BURNS HARBOR      75      40/  9/ 10 1022.0F
SAINT JOSEPH      76      20/  8/ 11 1023.0F
SOUTH LAKE BUOY   72 75   70/  4/  4 1022.4          1
4 MI NW BRIDGMAN  74 76   10/ 10/ 12 1021.7F         1/ 3
MICHIGAN CITY     75 77   50/ 10/ 10   N/A           2/ 3

$$
&&




USA.gov is the U.S. government's official web portal to all federal, state and local government web resources and services.